TimeCDT,TemperatureF,Dew PointF,Humidity,Sea Level PressureIn,VisibilityMPH,Wind Direction,Wind SpeedMPH,Gust SpeedMPH,PrecipitationIn,Events,Conditions,WindDirDegrees,DateUTC
12:56 AM,27.0,21.9,81,30.25,10.0,NW,12.7,-,N/A,,Clear,310,2013-04-22 05:56:00
1:56 AM,27.0,21.9,81,30.28,10.0,NW,6.9,-,N/A,,Partly Cloudy,320,2013-04-22 06:56:00
2:56 AM,28.0,23.0,81,30.25,10.0,NNW,13.8,-,N/A,,Clear,340,2013-04-22 07:56:00
3:29 AM,28.4,23.0,80,30.20,10.0,NNW,13.8,-,N/A,,Mostly Cloudy,340,2013-04-22 08:29:00
3:43 AM,28.4,23.0,80,30.19,10.0,NNW,16.1,-,N/A,,Partly Cloudy,340,2013-04-22 08:43:00
3:56 AM,28.9,23.0,78,30.26,10.0,NNW,15.0,-,N/A,,Scattered Clouds,340,2013-04-22 08:56:00
4:56 AM,28.0,21.9,78,30.27,10.0,NNW,15.0,-,N/A,,Mostly Cloudy,340,2013-04-22 09:56:00
5:56 AM,28.0,21.0,75,30.30,10.0,North,13.8,-,N/A,,Overcast,350,2013-04-22 10:56:00
6:56 AM,28.0,21.0,75,30.32,10.0,NNW,12.7,-,N/A,,Overcast,340,2013-04-22 11:56:00
7:56 AM,28.0,21.9,78,30.33,10.0,North,10.4,-,N/A,,Overcast,350,2013-04-22 12:56:00
8:56 AM,28.0,21.9,78,30.37,10.0,NNW,11.5,-,N/A,,Overcast,330,2013-04-22 13:56:00
9:56 AM,28.9,21.9,75,30.37,10.0,North,15.0,-,N/A,,Overcast,360,2013-04-22 14:56:00
10:56 AM,30.9,23.0,72,30.37,10.0,North,16.1,-,N/A,,Partly Cloudy,350,2013-04-22 15:56:00
11:17 AM,30.2,23.0,75,30.31,10.0,North,17.3,-,N/A,,Mostly Cloudy,360,2013-04-22 16:17:00
11:56 AM,30.9,23.0,72,30.39,10.0,North,17.3,-,N/A,,Overcast,360,2013-04-22 16:56:00
12:56 PM,30.9,23.0,72,30.40,10.0,North,13.8,-,N/A,,Overcast,360,2013-04-22 17:56:00
1:34 PM,32.0,23.0,69,30.33,10.0,North,16.1,-,N/A,,Overcast,350,2013-04-22 18:34:00
1:56 PM,32.0,23.0,69,30.39,10.0,North,15.0,-,N/A,,Overcast,350,2013-04-22 18:56:00
2:34 PM,30.2,21.2,69,30.33,10.0,North,13.8,-,N/A,,Overcast,360,2013-04-22 19:34:00
2:51 PM,30.2,23.0,75,30.33,10.0,North,12.7,-,N/A,,Overcast,360,2013-04-22 19:51:00
2:56 PM,30.9,23.0,72,30.39,10.0,North,12.7,-,N/A,,Overcast,350,2013-04-22 19:56:00
3:32 PM,30.2,23.0,75,30.33,10.0,North,13.8,-,N/A,,Overcast,360,2013-04-22 20:32:00
3:56 PM,32.0,24.1,73,30.39,10.0,NNW,15.0,-,N/A,,Overcast,330,2013-04-22 20:56:00
4:06 PM,32.0,24.8,75,30.33,10.0,NNW,16.1,-,N/A,,Overcast,330,2013-04-22 21:06:00
4:51 PM,30.2,24.8,80,30.32,10.0,North,12.7,-,N/A,,Overcast,350,2013-04-22 21:51:00
4:56 PM,30.9,24.1,76,30.39,10.0,NNW,15.0,-,N/A,,Overcast,340,2013-04-22 21:56:00
5:17 PM,30.2,21.2,69,30.32,10.0,NNW,17.3,-,N/A,,Overcast,330,2013-04-22 22:17:00
5:56 PM,30.9,21.0,67,30.38,10.0,NNW,16.1,-,N/A,,Overcast,330,2013-04-22 22:56:00
6:34 PM,30.2,21.2,69,30.32,10.0,NNW,17.3,-,N/A,,Overcast,340,2013-04-22 23:34:00
6:45 PM,30.2,21.2,69,30.32,10.0,NNW,13.8,-,N/A,,Overcast,330,2013-04-22 23:45:00
6:56 PM,30.0,19.9,66,30.39,10.0,NNW,13.8,-,N/A,,Overcast,330,2013-04-22 23:56:00
7:56 PM,30.0,21.0,69,30.39,10.0,NNW,13.8,-,N/A,,Mostly Cloudy,330,2013-04-23 00:56:00
8:56 PM,28.0,21.0,75,30.41,10.0,NNW,9.2,-,N/A,,Mostly Cloudy,340,2013-04-23 01:56:00
9:56 PM,24.1,19.9,84,30.43,10.0,NW,6.9,-,N/A,,Clear,310,2013-04-23 02:56:00
10:56 PM,23.0,19.0,85,30.42,10.0,WNW,8.1,-,N/A,,Clear,300,2013-04-23 03:56:00
11:56 PM,21.0,17.1,85,30.42,10.0,WNW,8.1,-,N/A,,Clear,300,2013-04-23 04:56:00